| time (UTC) | temp F | wind direction | speed MPH | gust MPH | rain 1hr in | rain 24hr in | rain mn in | humidity % | barometer mb |
| 20260906123409 | 72 | 36 | 0.0 | 1.0 | 0.00 | 0.00 | 0.00 | 99 | 1010.8 |
| 20260906122904 | 72 | 29 | 2.0 | 2.0 | 0.00 | 0.00 | 0.00 | 99 | 1011.0 |
| 20260906122359 | 71 | 51 | 3.0 | 3.0 | 0.00 | 0.00 | 0.00 | 99 | 1010.9 |
| 20260906121856 | 71 | 83 | 1.0 | 2.0 | 0.00 | 0.00 | 0.00 | 99 | 1010.9 |
| 20260906121351 | 71 | 40 | 2.0 | 3.0 | 0.00 | 0.00 | 0.00 | 99 | 1010.9 |
| 20260906120847 | 70 | 57 | 0.0 | 0.0 | 0.00 | 0.00 | 0.00 | 99 | 1010.8 |
| 20260906120343 | 70 | 60 | 1.0 | 1.0 | 0.00 | 0.00 | 0.00 | 99 | 1010.8 |
| 20260906115839 | 70 | 60 | 1.0 | 1.0 | 0.00 | 0.00 | 0.00 | 99 | 1010.7 |
| 20260906115334 | 70 | 60 | 0.0 | 0.0 | 0.00 | 0.00 | 0.00 | 99 | 1010.8 |
| 20260906114833 | 69 | 60 | 0.0 | 0.0 | 0.00 | 0.00 | 0.00 | 99 | 1010.5 |
| 20260906114329 | 69 | 60 | 1.0 | 1.0 | 0.00 | 0.00 | 0.00 | 99 | 1010.6 |
| 20260906113824 | 69 | 60 | 0.0 | 0.0 | 0.00 | 0.00 | 0.00 | 99 | 1010.7 |
| 20260906113323 | 68 | 60 | 0.0 | 0.0 | 0.00 | 0.00 | 0.00 | 99 | 1010.5 |
| 20260906112818 | 68 | 60 | 0.0 | 0.0 | 0.00 | 0.00 | 0.00 | 99 | 1010.5 |
| 20260906112309 | 68 | 61 | 0.0 | 0.0 | 0.00 | 0.00 | 0.00 | 99 | 1010.4 |
| 20260906111809 | 68 | 61 | 0.0 | 0.0 | 0.00 | 0.00 | 0.00 | 99 | 1010.6 |
| 20260906111308 | 68 | 61 | 0.0 | 0.0 | 0.00 | 0.00 | 0.00 | 99 | 1010.5 |
| 20260906110803 | 68 | 61 | 0.0 | 1.0 | 0.00 | 0.00 | 0.00 | 99 | 1010.5 |
| 20260906110259 | 68 | 61 | 0.0 | 0.0 | 0.00 | 0.00 | 0.00 | 99 | 1010.3 |
| 20260906105758 | 68 | 61 | 0.0 | 0.0 | 0.00 | 0.00 | 0.00 | 99 | 1010.0 |
| 20260906105254 | 68 | 61 | 0.0 | 0.0 | 0.00 | 0.00 | 0.00 | 99 | 1010.1 |
| 20260906104749 | 68 | 61 | 0.0 | 0.0 | 0.00 | 0.00 | 0.00 | 99 | 1010.1 |
| 20260906104247 | 68 | 61 | 0.0 | 0.0 | 0.00 | 0.00 | 0.00 | 99 | 1010.0 |
| 20260906103745 | 68 | 61 | 0.0 | 0.0 | 0.00 | 0.00 | 0.00 | 99 | 1009.9 |
| 20260906103240 | 68 | 61 | 0.0 | 0.0 | 0.00 | 0.00 | 0.00 | 99 | 1009.8 |
| 20260906102736 | 68 | 61 | 0.0 | 0.0 | 0.00 | 0.00 | 0.00 | 99 | 1009.7 |
| 20260906102234 | 68 | 61 | 0.0 | 0.0 | 0.00 | 0.00 | 0.00 | 99 | 1009.8 |
| 20260906101729 | 68 | 61 | 0.0 | 0.0 | 0.00 | 0.00 | 0.00 | 99 | 1009.5 |
| 20260906101219 | 68 | 64 | 0.0 | 0.0 | 0.00 | 0.00 | 0.00 | 99 | 1009.6 |
| 20260906100714 | 68 | 64 | 0.0 | 0.0 | 0.00 | 0.00 | 0.00 | 99 | 1009.6 |
| 20260906100209 | 68 | 64 | 0.0 | 0.0 | 0.00 | 0.00 | 0.00 | 99 | 1009.7 |
| 20260906095703 | 68 | 64 | 0.0 | 0.0 | 0.00 | 0.00 | 0.00 | 99 | 1009.3 |
| 20260906095159 | 68 | 64 | 0.0 | 0.0 | 0.00 | 0.00 | 0.00 | 99 | 1009.5 |
| 20260906094657 | 69 | 64 | 0.0 | 0.0 | 0.00 | 0.00 | 0.00 | 99 | 1009.2 |
| 20260906094153 | 69 | 64 | 0.0 | 0.0 | 0.00 | 0.00 | 0.00 | 99 | 1009.3 |
| 20260906093650 | 69 | 64 | 0.0 | 0.0 | 0.00 | 0.00 | 0.00 | 99 | 1009.3 |
| 20260906093150 | 69 | 64 | 0.0 | 0.0 | 0.00 | 0.00 | 0.00 | 99 | 1009.2 |
| 20260906092644 | 69 | 64 | 0.0 | 0.0 | 0.00 | 0.00 | 0.00 | 99 | 1009.2 |
| 20260906092139 | 69 | 64 | 0.0 | 0.0 | 0.00 | 0.00 | 0.00 | 99 | 1009.5 |
| 20260906091635 | 69 | 64 | 0.0 | 0.0 | 0.00 | 0.00 | 0.00 | 99 | 1009.2 |
| 20260906091131 | 69 | 64 | 0.0 | 0.0 | 0.00 | 0.00 | 0.00 | 99 | 1009.4 |
| 20260906090626 | 69 | 64 | 0.0 | 0.0 | 0.00 | 0.00 | 0.00 | 99 | 1009.3 |
| 20260906090121 | 69 | 64 | 0.0 | 0.0 | 0.00 | 0.00 | 0.00 | 99 | 1009.4 |
| 20260906085620 | 69 | 64 | 0.0 | 0.0 | 0.00 | 0.00 | 0.00 | 99 | 1009.3 |
| 20260906085114 | 69 | 71 | 1.0 | 1.0 | 0.00 | 0.00 | 0.00 | 99 | 1009.1 |
| 20260906084609 | 69 | 71 | 0.0 | 0.0 | 0.00 | 0.00 | 0.00 | 99 | 1009.1 |
| 20260906084108 | 69 | 71 | 0.0 | 0.0 | 0.00 | 0.00 | 0.00 | 99 | 1008.9 |
| 20260906083604 | 69 | 71 | 0.0 | 0.0 | 0.00 | 0.00 | 0.00 | 99 | 1009.1 |
| 20260906083103 | 69 | 71 | 0.0 | 0.0 | 0.00 | 0.00 | 0.00 | 99 | 1008.8 |
| 20260906082559 | 69 | 71 | 0.0 | 0.0 | 0.00 | 0.00 | 0.00 | 99 | 1009.0 |
| 20260906082054 | 69 | 71 | 0.0 | 0.0 | 0.00 | 0.00 | 0.00 | 99 | 1009.2 |
| 20260906081550 | 69 | 71 | 0.0 | 0.0 | 0.00 | 0.00 | 0.00 | 99 | 1008.9 |
| 20260906081045 | 69 | 71 | 0.0 | 0.0 | 0.00 | 0.00 | 0.00 | 99 | 1009.1 |
| 20260906080542 | 70 | 71 | 0.0 | 0.0 | 0.00 | 0.00 | 0.00 | 99 | 1008.8 |
| 20260906080037 | 70 | 71 | 0.0 | 0.0 | 0.00 | 0.00 | 0.00 | 99 | 1008.9 |
| 20260906075531 | 70 | 71 | 0.0 | 0.0 | 0.00 | 0.00 | 0.00 | 99 | 1009.0 |
| 20260906075026 | 70 | 71 | 0.0 | 0.0 | 0.00 | 0.00 | 0.00 | 99 | 1009.0 |
| 20260906074521 | 70 | 71 | 0.0 | 0.0 | 0.00 | 0.00 | 0.00 | 99 | 1009.0 |
| 20260906074020 | 70 | 71 | 0.0 | 0.0 | 0.00 | 0.00 | 0.00 | 99 | 1009.0 |
| 20260906073515 | 70 | 71 | 0.0 | 0.0 | 0.00 | 0.00 | 0.00 | 99 | 1009.2 |
| 20260906073011 | 70 | 71 | 0.0 | 0.0 | 0.00 | 0.00 | 0.00 | 99 | 1009.1 |
| 20260906072505 | 70 | 71 | 0.0 | 0.0 | 0.00 | 0.00 | 0.00 | 99 | 1008.9 |
| 20260906072002 | 70 | 71 | 0.0 | 0.0 | 0.00 | 0.00 | 0.00 | 99 | 1009.1 |
| 20260906071458 | 70 | 71 | 0.0 | 0.0 | 0.00 | 0.00 | 0.00 | 99 | 1009.2 |
| 20260906070953 | 70 | 71 | 0.0 | 0.0 | 0.00 | 0.00 | 0.00 | 99 | 1009.1 |
| 20260906070448 | 70 | 71 | 0.0 | 0.0 | 0.00 | 0.00 | 0.00 | 99 | 1009.1 |
| 20260906065944 | 70 | 71 | 0.0 | 0.0 | 0.00 | 0.00 | 0.00 | 99 | 1009.0 |
| 20260906065438 | 70 | 71 | 0.0 | 0.0 | 0.00 | 0.00 | 0.00 | 99 | 1008.9 |
| 20260906064934 | 70 | 71 | 0.0 | 0.0 | 0.00 | 0.00 | 0.00 | 99 | 1009.1 |
| 20260906064429 | 70 | 71 | 0.0 | 0.0 | 0.00 | 0.00 | 0.00 | 99 | 1009.2 |
| 20260906063924 | 70 | 71 | 0.0 | 0.0 | 0.00 | 0.00 | 0.00 | 99 | 1009.4 |
| 20260906063419 | 70 | 71 | 0.0 | 0.0 | 0.00 | 0.00 | 0.00 | 99 | 1009.5 |
| 20260906062914 | 70 | 71 | 0.0 | 0.0 | 0.00 | 0.00 | 0.00 | 99 | 1009.2 |
| 20260906062409 | 70 | 71 | 0.0 | 0.0 | 0.00 | 0.00 | 0.00 | 99 | 1009.4 |
| 20260906061904 | 70 | 71 | 0.0 | 0.0 | 0.00 | 0.00 | 0.00 | 99 | 1009.4 |
| 20260906061400 | 70 | 71 | 0.0 | 0.0 | 0.00 | 0.00 | 0.00 | 99 | 1009.6 |
| 20260906060854 | 70 | 71 | 0.0 | 0.0 | 0.00 | 0.00 | 0.00 | 99 | 1009.4 |
| 20260906060352 | 70 | 71 | 0.0 | 0.0 | 0.00 | 0.00 | 0.00 | 99 | 1009.9 |
| 20260906055848 | 70 | 71 | 0.0 | 0.0 | 0.00 | 0.00 | 0.00 | 99 | 1009.5 |
| 20260906055343 | 70 | 71 | 0.0 | 0.0 | 0.00 | 0.00 | 0.00 | 99 | 1009.9 |
| 20260906054838 | 70 | 70 | 0.0 | 0.0 | 0.00 | 0.00 | 0.00 | 99 | 1009.8 |
| 20260906054333 | 70 | 70 | 0.0 | 1.0 | 0.00 | 0.00 | 0.00 | 99 | 1009.7 |
| 20260906053830 | 70 | 87 | 1.0 | 1.0 | 0.00 | 0.00 | 0.00 | 99 | 1009.7 |
| 20260906053325 | 70 | 122 | 0.0 | 0.0 | 0.00 | 0.00 | 0.00 | 99 | 1009.8 |
| 20260906052820 | 70 | 122 | 0.0 | 0.0 | 0.00 | 0.00 | 0.00 | 99 | 1009.6 |
| 20260906052317 | 70 | 84 | 0.0 | 0.0 | 0.00 | 0.00 | 0.00 | 99 | 1009.6 |
| 20260906051814 | 70 | 82 | 1.0 | 1.0 | 0.00 | 0.00 | 0.00 | 99 | 1009.9 |
| 20260906051313 | 70 | 76 | 0.0 | 1.0 | 0.00 | 0.00 | 0.00 | 99 | 1010.2 |
| 20260906050808 | 70 | 50 | 1.0 | 2.0 | 0.00 | 0.00 | 0.00 | 99 | 1010.0 |
| 20260906050303 | 70 | 69 | 1.0 | 1.0 | 0.00 | 0.00 | 0.00 | 99 | 1010.0 |
| 20260906045802 | 70 | 69 | 0.0 | 0.0 | 0.00 | 0.00 | 0.00 | 99 | 1009.9 |
| 20260906045256 | 70 | 69 | 0.0 | 0.0 | 0.00 | 0.00 | 0.00 | 99 | 1009.7 |
| 20260906044753 | 71 | 69 | 0.0 | 0.0 | 0.00 | 0.00 | 0.00 | 99 | 1009.5 |
| 20260906044247 | 70 | 69 | 0.0 | 0.0 | 0.00 | 0.00 | 0.00 | 99 | 1009.8 |
| 20260906043743 | 70 | 69 | 0.0 | 0.0 | 0.00 | 0.00 | 0.00 | 99 | 1009.6 |
| 20260906043239 | 70 | 69 | 0.0 | 0.0 | 0.00 | 0.00 | 0.00 | 99 | 1009.6 |
| 20260906042738 | 71 | 69 | 0.0 | 0.0 | 0.00 | 0.00 | 0.00 | 99 | 1009.6 |
| 20260906042237 | 71 | 69 | 0.0 | 0.0 | 0.00 | 0.00 | 0.00 | 99 | 1009.7 |
| 20260906041733 | 71 | 69 | 1.0 | 1.0 | 0.00 | 0.00 | 0.00 | 99 | 1009.7 |
| 20260906041228 | 71 | 69 | 0.0 | 0.0 | 0.00 | 0.00 | 0.00 | 99 | 1009.5 |
| 20260906040724 | 71 | 69 | 0.0 | 0.0 | 0.00 | 0.00 | 0.00 | 99 | 1009.6 |
| 20260906040219 | 71 | 70 | 0.0 | 0.0 | 0.00 | 0.00 | 0.00 | 99 | 1009.5 |
| 20260906035715 | 71 | 70 | 0.0 | 0.0 | 0.00 | 0.11 | 0.11 | 99 | 1009.7 |
| 20260906035210 | 71 | 64 | 2.0 | 2.0 | 0.00 | 0.11 | 0.11 | 99 | 1009.6 |
| 20260906034704 | 71 | 78 | 0.0 | 1.0 | 0.00 | 0.11 | 0.11 | 99 | 1009.8 |
| 20260906034159 | 71 | 79 | 0.0 | 0.0 | 0.00 | 0.11 | 0.11 | 99 | 1009.7 |
| 20260906033655 | 71 | 107 | 0.0 | 0.0 | 0.00 | 0.11 | 0.11 | 99 | 1009.8 |
| 20260906033156 | 71 | 60 | 1.0 | 1.0 | 0.00 | 0.11 | 0.11 | 99 | 1009.5 |
| 20260906032651 | 71 | 24 | 0.0 | 0.0 | 0.00 | 0.11 | 0.11 | 99 | 1009.5 |
| 20260906032146 | 71 | 28 | 1.0 | 2.0 | 0.00 | 0.11 | 0.11 | 99 | 1010.0 |
| 20260906031642 | 71 | 25 | 0.0 | 0.0 | 0.05 | 0.11 | 0.11 | 99 | 1009.8 |
| 20260906031137 | 71 | 25 | 0.0 | 0.0 | 0.05 | 0.11 | 0.11 | 99 | 1010.2 |
| 20260906030636 | 71 | 24 | 1.0 | 1.0 | 0.05 | 0.11 | 0.11 | 99 | 1010.2 |
| 20260906030132 | 71 | 300 | 0.0 | 0.0 | 0.00 | 0.10 | 0.10 | 99 | 1009.9 |
| 20260906025631 | 71 | 202 | 0.0 | 0.0 | 0.00 | 0.10 | 0.10 | 99 | 1010.1 |
| 20260906025130 | 71 | 202 | 0.0 | 0.0 | 0.00 | 0.10 | 0.10 | 99 | 1010.1 |
| 20260906024625 | 71 | 202 | 0.0 | 0.0 | 0.00 | 0.10 | 0.10 | 99 | 1010.2 |
| 20260906024119 | 71 | 202 | 0.0 | 0.0 | 0.00 | 0.10 | 0.10 | 99 | 1010.1 |
| 20260906023615 | 71 | 202 | 0.0 | 0.0 | 0.00 | 0.10 | 0.10 | 99 | 1010.4 |
| 20260906023109 | 71 | 202 | 0.0 | 0.0 | 0.00 | 0.10 | 0.10 | 99 | 1010.2 |
| 20260906022605 | 71 | 202 | 1.0 | 1.0 | 0.00 | 0.10 | 0.10 | 99 | 1010.4 |
| 20260906022101 | 71 | 201 | 0.0 | 0.0 | 0.00 | 0.10 | 0.10 | 99 | 1010.2 |
| 20260906021556 | 71 | 202 | 0.0 | 0.0 | 0.00 | 0.10 | 0.10 | 99 | 1010.3 |
| 20260906021055 | 71 | 201 | 0.0 | 0.0 | 0.00 | 0.10 | 0.10 | 99 | 1010.2 |
| 20260906020554 | 71 | 202 | 0.0 | 0.0 | 0.00 | 0.10 | 0.10 | 99 | 1010.2 |
| 20260906020054 | 71 | 171 | 1.0 | 1.0 | 0.00 | 0.10 | 0.10 | 99 | 1010.3 |
| 20260906015553 | 71 | 194 | 1.0 | 1.0 | 0.00 | 0.10 | 0.10 | 99 | 1010.3 |
| 20260906015047 | 71 | 167 | 0.0 | 0.0 | 0.00 | 0.10 | 0.10 | 99 | 1010.1 |
| 20260906014543 | 71 | 203 | 0.0 | 0.0 | 0.00 | 0.10 | 0.10 | 99 | 1010.4 |
| 20260906014038 | 72 | 197 | 2.0 | 3.0 | 0.00 | 0.10 | 0.10 | 99 | 1010.4 |
| 20260906013533 | 72 | 199 | 0.0 | 1.0 | 0.00 | 0.10 | 0.10 | 99 | 1010.3 |
| 20260906013029 | 72 | 196 | 0.0 | 0.0 | 0.00 | 0.10 | 0.10 | 99 | 1010.0 |
| 20260906012524 | 72 | 259 | 2.0 | 2.0 | 0.00 | 0.10 | 0.10 | 99 | 1010.0 |
| 20260906012023 | 72 | 196 | 2.0 | 3.0 | 0.00 | 0.10 | 0.10 | 99 | 1010.1 |
| 20260906011520 | 72 | 191 | 0.0 | 0.0 | 0.00 | 0.10 | 0.10 | 99 | 1009.8 |
| 20260906011019 | 72 | 189 | 2.0 | 2.0 | 0.00 | 0.10 | 0.10 | 99 | 1009.6 |
| 20260906010514 | 72 | 156 | 1.0 | 1.0 | 0.00 | 0.10 | 0.10 | 99 | 1009.6 |
| 20260906010011 | 72 | 190 | 0.0 | 1.0 | 0.00 | 0.10 | 0.10 | 99 | 1009.6 |
| 20260906005509 | 72 | 255 | 1.0 | 3.0 | 0.00 | 0.10 | 0.10 | 99 | 1009.4 |
| 20260906005008 | 72 | 218 | 2.0 | 2.0 | 0.00 | 0.10 | 0.10 | 99 | 1009.5 |
| 20260906004503 | 72 | 241 | 2.0 | 3.0 | 0.00 | 0.10 | 0.10 | 99 | 1009.5 |
| 20260906003958 | 72 | 203 | 2.0 | 3.0 | 0.00 | 0.10 | 0.10 | 99 | 1009.2 |
| 20260906003453 | 72 | 195 | 3.0 | 3.0 | 0.00 | 0.10 | 0.10 | 99 | 1009.2 |
| 20260906002949 | 72 | 89 | 0.0 | 0.0 | 0.00 | 0.10 | 0.10 | 99 | 1009.0 |
| 20260906002449 | 72 | 180 | 0.0 | 0.0 | 0.00 | 0.10 | 0.10 | 99 | 1009.2 |
| 20260906001944 | 72 | 182 | 1.0 | 1.0 | 0.00 | 0.10 | 0.10 | 99 | 1009.0 |
| 20260906001439 | 72 | 200 | 2.0 | 2.0 | 0.00 | 0.10 | 0.10 | 99 | 1009.0 |
| 20260906000929 | 72 | 114 | 1.0 | 2.0 | 0.00 | 0.10 | 0.10 | 99 | 1008.9 |
| 20260906000425 | 72 | 112 | 0.0 | 0.0 | 0.07 | 0.10 | 0.10 | 99 | 1009.3 |
| 20260905235918 | 72 | 113 | 0.0 | 0.0 | 0.12 | 0.10 | 0.10 | 99 | 1009.3 |
| 20260905235413 | 72 | 144 | 0.0 | 0.0 | 0.12 | 0.09 | 0.09 | 99 | 1009.1 |
| 20260905234908 | 73 | 193 | 4.0 | 4.0 | 0.07 | 0.08 | 0.08 | 99 | 1009.2 |
| 20260905234403 | 73 | 190 | 1.0 | 2.0 | 0.05 | 0.07 | 0.07 | 99 | 1009.4 |
| 20260905233858 | 73 | 142 | 2.0 | 2.0 | 0.05 | 0.07 | 0.07 | 99 | 1009.0 |
| 20260905233353 | 73 | 162 | 2.0 | 3.0 | 0.00 | 0.06 | 0.06 | 99 | 1008.7 |
| 20260905232847 | 73 | 159 | 3.0 | 3.0 | 0.00 | 0.06 | 0.06 | 99 | 1008.6 |
| 20260905232343 | 73 | 112 | 0.0 | 1.0 | 0.00 | 0.06 | 0.06 | 99 | 1008.7 |
| 20260905231839 | 73 | 150 | 5.0 | 7.0 | 0.00 | 0.06 | 0.06 | 99 | 1008.2 |
| 20260905231339 | 73 | 141 | 4.0 | 6.0 | 0.00 | 0.06 | 0.06 | 99 | 1007.8 |
| 20260905230835 | 73 | 108 | 4.0 | 7.0 | 0.00 | 0.06 | 0.06 | 99 | 1007.3 |
| 20260905230332 | 73 | 114 | 2.0 | 3.0 | 0.07 | 0.06 | 0.06 | 99 | 1007.2 |
| 20260905225833 | 73 | 80 | 4.0 | 4.0 | 0.19 | 0.06 | 0.06 | 99 | 1007.3 |
| 20260905225327 | 73 | 78 | 2.0 | 6.0 | 0.17 | 0.05 | 0.05 | 99 | 1007.9 |
| 20260905224827 | 74 | 40 | 3.0 | 4.0 | 0.12 | 0.04 | 0.04 | 99 | 1009.1 |
| 20260905224323 | 74 | 34 | 6.0 | 8.0 | 0.12 | 0.02 | 0.02 | 99 | 1009.8 |
| 20260905223818 | 76 | 341 | 6.0 | 8.0 | 0.12 | 0.02 | 0.02 | 98 | 1010.2 |
| 20260905223315 | 80 | 42 | 5.0 | 8.0 | 0.00 | 0.00 | 0.00 | 90 | 1009.6 |
| 20260905222810 | 82 | 235 | 7.0 | 9.0 | 0.00 | 0.00 | 0.00 | 81 | 1008.5 |
| 20260905222309 | 84 | 263 | 15.0 | 32.0 | 0.00 | 0.00 | 0.00 | 78 | 1008.2 |
| 20260905221805 | 88 | 281 | 14.0 | 21.0 | 0.00 | 0.00 | 0.00 | 80 | 1008.3 |
| 20260905221302 | 87 | 183 | 6.0 | 9.0 | 0.00 | 0.00 | 0.00 | 82 | 1007.5 |
| 20260905220757 | 88 | 154 | 1.0 | 1.0 | 0.00 | 0.00 | 0.00 | 89 | 1007.2 |
| 20260905220254 | 88 | 186 | 0.0 | 0.0 | 0.00 | 0.00 | 0.00 | 86 | 1007.0 |
| 20260905215753 | 88 | 195 | 0.0 | 0.0 | 0.00 | 0.00 | 0.00 | 82 | 1007.5 |
| 20260905215249 | 88 | 217 | 1.0 | 1.0 | 0.00 | 0.00 | 0.00 | 80 | 1007.3 |
| 20260905214744 | 89 | 199 | 0.0 | 0.0 | 0.00 | 0.00 | 0.00 | 84 | 1006.8 |
| 20260905214240 | 89 | 199 | 0.0 | 0.0 | 0.00 | 0.00 | 0.00 | 82 | 1007.2 |
| 20260905213735 | 89 | 159 | 1.0 | 1.0 | 0.00 | 0.00 | 0.00 | 80 | 1007.2 |
| 20260905213231 | 90 | 100 | 0.0 | 0.0 | 0.00 | 0.00 | 0.00 | 84 | 1007.2 |
| 20260905212726 | 91 | 100 | 0.0 | 0.0 | 0.00 | 0.00 | 0.00 | 80 | 1006.8 |
| 20260905212225 | 91 | 100 | 0.0 | 0.0 | 0.00 | 0.00 | 0.00 | 71 | 1006.3 |
| 20260905211725 | 91 | 164 | 0.0 | 0.0 | 0.00 | 0.00 | 0.00 | 72 | 1006.7 |
| 20260905211220 | 91 | 164 | 0.0 | 0.0 | 0.00 | 0.00 | 0.00 | 74 | 1006.5 |
| 20260905210718 | 92 | 77 | 0.0 | 0.0 | 0.00 | 0.00 | 0.00 | 71 | 1006.5 |
| 20260905210217 | 92 | 77 | 0.0 | 0.0 | 0.00 | 0.00 | 0.00 | 72 | 1006.7 |
| 20260905205710 | 92 | 77 | 0.0 | 0.0 | 0.00 | 0.00 | 0.00 | 72 | 1006.6 |
| 20260905205210 | 92 | 77 | 0.0 | 0.0 | 0.00 | 0.00 | 0.00 | 76 | 1006.8 |
| 20260905204705 | 93 | 44 | 0.0 | 0.0 | 0.00 | 0.00 | 0.00 | 68 | 1006.7 |
| 20260905204200 | 94 | 79 | 0.0 | 1.0 | 0.00 | 0.00 | 0.00 | 69 | 1006.3 |
| 20260905203700 | 95 | 52 | 5.0 | 6.0 | 0.00 | 0.00 | 0.00 | 61 | 1006.3 |
| 20260905203155 | 94 | 70 | 1.0 | 1.0 | 0.00 | 0.00 | 0.00 | 69 | 1006.5 |
| 20260905202651 | 97 | 157 | 0.0 | 1.0 | 0.00 | 0.00 | 0.00 | 72 | 1006.3 |
| 20260905202146 | 97 | 95 | 0.0 | 0.0 | 0.00 | 0.00 | 0.00 | 64 | 1006.5 |
| 20260905201642 | 95 | 106 | 0.0 | 0.0 | 0.00 | 0.00 | 0.00 | 69 | 1006.8 |
| 20260905201141 | 95 | 220 | 1.0 | 2.0 | 0.00 | 0.00 | 0.00 | 63 | 1006.8 |
| 20260905200637 | 95 | 129 | 0.0 | 1.0 | 0.00 | 0.00 | 0.00 | 69 | 1006.9 |
| 20260905200132 | 93 | 214 | 0.0 | 0.0 | 0.00 | 0.00 | 0.00 | 72 | 1006.6 |
| 20260905195625 | 93 | 214 | 0.0 | 1.0 | 0.00 | 0.00 | 0.00 | 70 | 1006.9 |
| 20260905195120 | 94 | 178 | 0.0 | 0.0 | 0.00 | 0.00 | 0.00 | 66 | 1006.7 |
| 20260905194615 | 95 | 208 | 0.0 | 1.0 | 0.00 | 0.00 | 0.00 | 66 | 1007.0 |
| 20260905194114 | 95 | 38 | 1.0 | 1.0 | 0.00 | 0.00 | 0.00 | 62 | 1007.2 |
| 20260905193609 | 96 | 202 | 3.0 | 3.0 | 0.00 | 0.00 | 0.00 | 66 | 1007.1 |
| 20260905193104 | 95 | 178 | 1.0 | 1.0 | 0.00 | 0.00 | 0.00 | 61 | 1007.4 |
| 20260905192600 | 97 | 152 | 1.0 | 1.0 | 0.00 | 0.00 | 0.00 | 59 | 1007.0 |
| 20260905192056 | 96 | 357 | 0.0 | 1.0 | 0.00 | 0.00 | 0.00 | 63 | 1007.2 |
| 20260905191554 | 96 | 162 | 0.0 | 1.0 | 0.00 | 0.00 | 0.00 | 61 | 1007.4 |
| 20260905191054 | 96 | 263 | 4.0 | 4.0 | 0.00 | 0.00 | 0.00 | 61 | 1007.5 |
| 20260905190552 | 96 | 260 | 2.0 | 2.0 | 0.00 | 0.00 | 0.00 | 63 | 1007.6 |
| 20260905190051 | 97 | 222 | 2.0 | 3.0 | 0.00 | 0.00 | 0.00 | 65 | 1007.7 |
| 20260905185550 | 96 | 134 | 1.0 | 2.0 | 0.00 | 0.00 | 0.00 | 66 | 1007.9 |
| 20260905185049 | 96 | 202 | 3.0 | 3.0 | 0.00 | 0.00 | 0.00 | 62 | 1008.0 |
| 20260905184544 | 95 | 225 | 3.0 | 4.0 | 0.00 | 0.00 | 0.00 | 62 | 1008.0 |
| 20260905184043 | 95 | 234 | 1.0 | 2.0 | 0.00 | 0.00 | 0.00 | 62 | 1007.8 |
| 20260905183537 | 95 | 253 | 5.0 | 7.0 | 0.00 | 0.00 | 0.00 | 61 | 1008.1 |
| 20260905183033 | 95 | 31 | 1.0 | 1.0 | 0.00 | 0.00 | 0.00 | 63 | 1008.3 |
| 20260905182532 | 95 | 219 | 2.0 | 2.0 | 0.00 | 0.00 | 0.00 | 65 | 1008.2 |
| 20260905182026 | 95 | 185 | 3.0 | 3.0 | 0.00 | 0.00 | 0.00 | 64 | 1008.5 |
| 20260905181521 | 95 | 286 | 5.0 | 7.0 | 0.00 | 0.00 | 0.00 | 64 | 1008.5 |
| 20260905181020 | 94 | 242 | 3.0 | 3.0 | 0.00 | 0.00 | 0.00 | 64 | 1008.5 |
| 20260905180515 | 94 | 252 | 4.0 | 6.0 | 0.00 | 0.00 | 0.00 | 67 | 1008.9 |
| 20260905180011 | 95 | 235 | 3.0 | 3.0 | 0.00 | 0.00 | 0.00 | 63 | 1008.8 |
| 20260905175510 | 94 | 180 | 2.0 | 2.0 | 0.00 | 0.00 | 0.00 | 68 | 1008.9 |
| 20260905175006 | 95 | 184 | 0.0 | 1.0 | 0.00 | 0.00 | 0.00 | 68 | 1009.0 |
| 20260905174501 | 94 | 221 | 0.0 | 0.0 | 0.00 | 0.00 | 0.00 | 68 | 1008.9 |
| 20260905173957 | 94 | 248 | 4.0 | 7.0 | 0.00 | 0.00 | 0.00 | 68 | 1008.9 |
| 20260905173453 | 94 | 264 | 8.0 | 11.0 | 0.00 | 0.00 | 0.00 | 68 | 1009.2 |
| 20260905172948 | 94 | 119 | 0.0 | 1.0 | 0.00 | 0.00 | 0.00 | 69 | 1009.2 |
| 20260905172446 | 93 | 198 | 2.0 | 2.0 | 0.00 | 0.00 | 0.00 | 72 | 1009.2 |
| 20260905171942 | 93 | 276 | 4.0 | 4.0 | 0.00 | 0.00 | 0.00 | 75 | 1009.3 |
| 20260905171438 | 93 | 288 | 4.0 | 6.0 | 0.00 | 0.00 | 0.00 | 73 | 1009.4 |
| 20260905170934 | 93 | 286 | 6.0 | 7.0 | 0.00 | 0.00 | 0.00 | 72 | 1009.3 |
| 20260905170430 | 92 | 279 | 4.0 | 4.0 | 0.00 | 0.00 | 0.00 | 73 | 1009.5 |
| 20260905165930 | 93 | 241 | 2.0 | 3.0 | 0.00 | 0.00 | 0.00 | 74 | 1009.6 |
| 20260905165425 | 93 | 319 | 3.0 | 4.0 | 0.00 | 0.00 | 0.00 | 73 | 1009.6 |
| 20260905164920 | 93 | 270 | 7.0 | 8.0 | 0.00 | 0.00 | 0.00 | 74 | 1009.8 |
| 20260905164414 | 93 | 297 | 1.0 | 2.0 | 0.00 | 0.00 | 0.00 | 75 | 1009.5 |
| 20260905163909 | 92 | 171 | 1.0 | 2.0 | 0.00 | 0.00 | 0.00 | 77 | 1009.8 |
| 20260905163406 | 92 | 185 | 2.0 | 2.0 | 0.00 | 0.00 | 0.00 | 78 | 1009.9 |
| 20260905162902 | 91 | 174 | 2.0 | 4.0 | 0.00 | 0.00 | 0.00 | 77 | 1009.9 |
| 20260905162401 | 92 | 275 | 3.0 | 3.0 | 0.00 | 0.00 | 0.00 | 75 | 1010.0 |
| 20260905161857 | 91 | 263 | 5.0 | 7.0 | 0.00 | 0.00 | 0.00 | 77 | 1010.3 |
| 20260905161356 | 91 | 271 | 7.0 | 9.0 | 0.00 | 0.00 | 0.00 | 77 | 1010.3 |
| 20260905160854 | 91 | 188 | 4.0 | 6.0 | 0.00 | 0.00 | 0.00 | 80 | 1010.2 |
| 20260905160348 | 91 | 328 | 2.0 | 2.0 | 0.00 | 0.00 | 0.00 | 78 | 1010.5 |
| 20260905155843 | 90 | 242 | 5.0 | 7.0 | 0.00 | 0.00 | 0.00 | 79 | 1010.5 |
| 20260905155342 | 90 | 204 | 6.0 | 7.0 | 0.00 | 0.00 | 0.00 | 78 | 1010.7 |
| 20260905154837 | 90 | 215 | 6.0 | 7.0 | 0.00 | 0.00 | 0.00 | 79 | 1010.5 |
| 20260905154332 | 90 | 30 | 5.0 | 6.0 | 0.00 | 0.00 | 0.00 | 80 | 1010.7 |
| 20260905153827 | 90 | 152 | 1.0 | 2.0 | 0.00 | 0.00 | 0.00 | 79 | 1010.5 |
| 20260905153324 | 89 | 260 | 4.0 | 7.0 | 0.00 | 0.00 | 0.00 | 79 | 1010.7 |
| 20260905152823 | 89 | 263 | 3.0 | 4.0 | 0.00 | 0.00 | 0.00 | 80 | 1010.5 |
| 20260905152322 | 89 | 213 | 2.0 | 3.0 | 0.00 | 0.00 | 0.00 | 82 | 1010.7 |
| 20260905151817 | 89 | 243 | 6.0 | 8.0 | 0.00 | 0.00 | 0.00 | 81 | 1010.6 |
| 20260905151313 | 90 | 146 | 1.0 | 3.0 | 0.00 | 0.00 | 0.00 | 81 | 1010.4 |
| 20260905150813 | 89 | 205 | 2.0 | 3.0 | 0.00 | 0.00 | 0.00 | 83 | 1010.4 |
| 20260905150307 | 89 | 211 | 3.0 | 3.0 | 0.00 | 0.00 | 0.00 | 82 | 1010.5 |
| 20260905145804 | 89 | 229 | 6.0 | 11.0 | 0.00 | 0.00 | 0.00 | 81 | 1010.6 |
| 20260905145259 | 89 | 210 | 3.0 | 3.0 | 0.00 | 0.00 | 0.00 | 84 | 1010.6 |
| 20260905144758 | 88 | 266 | 2.0 | 3.0 | 0.00 | 0.00 | 0.00 | 84 | 1010.8 |
| 20260905144254 | 88 | 255 | 5.0 | 8.0 | 0.00 | 0.00 | 0.00 | 84 | 1010.7 |
| 20260905143752 | 87 | 177 | 3.0 | 6.0 | 0.00 | 0.00 | 0.00 | 84 | 1010.8 |
| 20260905143247 | 87 | 193 | 5.0 | 6.0 | 0.00 | 0.00 | 0.00 | 86 | 1010.8 |
| 20260905142745 | 87 | 259 | 4.0 | 7.0 | 0.00 | 0.00 | 0.00 | 85 | 1010.7 |
| 20260905142240 | 87 | 240 | 1.0 | 2.0 | 0.00 | 0.00 | 0.00 | 86 | 1010.8 |
| 20260905141736 | 87 | 217 | 2.0 | 3.0 | 0.00 | 0.00 | 0.00 | 87 | 1010.9 |
| 20260905141232 | 86 | 154 | 1.0 | 2.0 | 0.00 | 0.00 | 0.00 | 87 | 1010.9 |
| 20260905140727 | 86 | 259 | 5.0 | 7.0 | 0.00 | 0.00 | 0.00 | 86 | 1011.0 |
| 20260905140227 | 86 | 226 | 6.0 | 8.0 | 0.00 | 0.00 | 0.00 | 87 | 1011.0 |
| 20260905135720 | 86 | 150 | 3.0 | 6.0 | 0.00 | 0.00 | 0.00 | 87 | 1010.8 |
| 20260905135217 | 86 | 178 | 1.0 | 2.0 | 0.00 | 0.00 | 0.00 | 89 | 1010.8 |
| 20260905134715 | 85 | 234 | 4.0 | 6.0 | 0.00 | 0.00 | 0.00 | 89 | 1010.8 |
| 20260905134210 | 85 | 258 | 2.0 | 3.0 | 0.00 | 0.00 | 0.00 | 89 | 1011.0 |
| 20260905133705 | 84 | 230 | 2.0 | 3.0 | 0.00 | 0.00 | 0.00 | 90 | 1011.2 |
| 20260905133200 | 84 | 249 | 6.0 | 8.0 | 0.00 | 0.00 | 0.00 | 90 | 1011.1 |
| 20260905132658 | 84 | 276 | 5.0 | 6.0 | 0.00 | 0.00 | 0.00 | 91 | 1011.1 |
| 20260905132154 | 84 | 244 | 5.0 | 7.0 | 0.00 | 0.00 | 0.00 | 91 | 1011.1 |
| 20260905131643 | 83 | 351 | 3.0 | 4.0 | 0.00 | 0.00 | 0.00 | 92 | 1010.9 |
| 20260905131138 | 83 | 271 | 3.0 | 6.0 | 0.00 | 0.00 | 0.00 | 93 | 1011.2 |
| 20260905130633 | 82 | 259 | 2.0 | 3.0 | 0.00 | 0.00 | 0.00 | 94 | 1011.3 |
| 20260905130132 | 82 | 253 | 5.0 | 8.0 | 0.00 | 0.00 | 0.00 | 94 | 1011.2 |
| 20260905125627 | 82 | 266 | 3.0 | 3.0 | 0.00 | 0.00 | 0.00 | 94 | 1011.2 |
| 20260905125122 | 81 | 338 | 2.0 | 2.0 | 0.00 | 0.00 | 0.00 | 96 | 1011.2 |
| 20260905124613 | 81 | 208 | 2.0 | 3.0 | 0.00 | 0.00 | 0.00 | 96 | 1011.3 |
| 20260905124109 | 80 | 214 | 1.0 | 2.0 | 0.00 | 0.00 | 0.00 | 97 | 1011.2 |
| 20260905123603 | 80 | 191 | 2.0 | 2.0 | 0.00 | 0.00 | 0.00 | 97 | 1011.2 |